Погода в Мукшах

Россия / Удмуртская Республика     57°14′23″N   53°23′34″E
темп.,
°C
ветер,
м/с
пор.,
м/с
влажн.,
%
обл.,
%
осадки,
мм/ч
давл.,
гПа
погр.,
м
28 сентября, вт
вт2801:00+2св513755 0.0 1026409
04:00+1св512825 0.0 1027355
07:00+1св512845 0.0 1028394
10:00+5всв6116123 0.0 10271083
13:00+8всв6852100 0.0 10271417
16:00+7св575399 0.0 10281425
19:00+4ссв396996 0.0 1029232
22:00+3с377794 0.0 1029175
29 сентября, ср
ср2901:00+2ссв368333 0.0 1029148
04:000с33925 0.0 103051
07:00−1с24925 0.0 103075
10:00+5ссв34655 0.0 1030581
13:00+8с33525 0.0 10291287
16:00+8с3449100 0.0 10281405
19:00+5с2268100 0.0 102948
22:00+5с2271100 0.0 102943
30 сентября, чт
чт3001:00+4с2275100 0.0 102970
04:00+4ссз2385100 0.0 1029125
07:00+4зсз2391100 0.0 1029137
10:00+6сз2374100 0.1 1029477
13:00+8зсз4565100 0.0 10271126
16:00+7зсз4677100 0.1 1027971
19:00+6зсз3790100 0.0 1026408
22:00+6зсз3892100 0.0 1026351
1 октября, пт
пт101:00+6сз3694100 0.0 1026280
04:00+6ссз369594 0.0 1026241
07:00+6ссз3692100 0.0 1027256
10:00+7ссз2489100 0.2 1027265
13:00+7ссз2385100 0.3 1028282
16:00+8ссв1183100 0.3 1028103
19:00+8ссз1188100 0.0 102815
22:00+7с1191100 0.0 102929
2 октября, сб
сб201:00+7сз1192100 0.0 102933
04:00+7сз2392100 0.0 103086
07:00+7сз2392100 0.0 1030116
10:00+9сз237594 0.0 1030409
13:00+11сз3367100 0.0 1031707
16:00+11зсз346828 0.0 1030853
19:00+10з2271100 0.0 103141
22:00+9сз2270100 0.0 103135